Regional Weather Roundup
Issued by NWS Austin/San Antonio, TX

Home | Current Version | Previous Version | Text Only | Print | Product List | Glossary On
Versions: 1 2 3 4 5 6 7 8 9 10 11 12 13 14 15 16 17 18 19 20 21 22 23 24 25 26 27 28 29 30 31 32 33 34 35 36 37 38 39 40 41 42 43 44 45 46 47 48 49 50
000
ASUS44 KEWX 280702
RWREWX
SOUTH TEXAS REGIONAL WEATHER ROUNDUP
NATIONAL WEATHER SERVICE AUSTIN/SAN ANTONIO TX
200 AM CDT FRI APR 28 2017

NOTE: "FAIR" INDICATED FEW OR NO CLOUDS BELOW 12,000 FEET WITH NO
SIGNIFICANT WEATHER AND/OR OBSTRUCTIONS TO VISIBILITY.

* - THESE STATIONS ARE NOT NWS OR FAA STATIONS...AND ARE NOT SUBJECT
    TO NWS AND FAA QUALITY CONTROL.

TXZ171-172-183>190-280800-
TEXAS HILL COUNTRY AND EDWARDS PLATEAU

CITY           SKY/WX    TMP DP  RH WIND       PRES   REMARKS
JUNCTION       CLOUDY    73  64  73 S7        29.59S
*LLANO         CLEAR     70  61  73 SE5       29.63R
BURNET         PTCLDY    67  62  84 S13G21    29.63R
*HORSESHOE BAY MOCLDY    68  63  85 S10       29.61S
*KERRVILLE     CLOUDY    66  64  91 S16G24    29.64S
*FREDERICKSBRG PTCLDY    67  61  83 S10       29.63R
*ROCKSPRINGS   CLOUDY    70  64  83 S15G24    29.63F
*BOERNE STAGE  CLOUDY    64  61  88 S9G16     29.65S
*CASTROVILLE   CLOUDY    70  64  80 SE13      29.64F HAZE
HONDO          LGT RAIN  70  66  87 SE13      29.62F
*UVALDE        CLOUDY    69  65  88 SE10      29.61F
DEL RIO        CLEAR     74  65  73 E10       29.53F
LAUGHLIN AFB   NOT AVBL
CARRIZO SPRGS  CLEAR     70  68  94 SE9       29.56F
*EAGLE PASS    NOT AVBL
$$

TXZ173-191>194-202-209-217>225-228-280800-
CENTRAL AND SOUTH CENTRAL TEXAS

CITY           SKY/WX    TMP DP  RH WIND       PRES   REMARKS
GEORGETOWN     CLOUDY    70  61  73 S14G23    29.62S
AUSTIN/BERGSTM CLOUDY    72  65  78 S13G23    29.61F
AUSTIN/MABRY   CLOUDY    71  64  78 S8        29.62F
*AUSTIN/EXEC   CLOUDY    70  64  83 S10G18    29.62F
*LAGO VISTA    CLOUDY    68  63  84 S10G22    29.63F
SAN MARCOS     CLOUDY    70  64  83 S12       29.63F
NEW BRAUNFELS  CLOUDY    71  65  81 S9        29.62F
RANDOLPH AFB   CLOUDY    71  67  90 S10       29.63S
PT SAN ANTONIO CLOUDY    71  65  82 SE12      29.61F
SAN ANTONIO    CLOUDY    70  64  81 S12       29.63F
STINSON FIELD  CLOUDY    72  65  78 SE8       29.61F
*LA GRANGE     CLOUDY    72  69  90 S6        29.61F
*GIDDINGS      CLOUDY    70  65  83 S8G16     29.63F
*GONZALES      CLOUDY    72  70  93 S7        29.61F
$$

TXZ163>164-176>182-195>201-210>213-226-227-235-280800-
SOUTHEAST TEXAS

CITY           SKY/WX    TMP DP  RH WIND       PRES   REMARKS
COLLEGE STN    CLOUDY    71  65  81 S14       29.63F
*BRYAN         CLOUDY    70  64  83 S10G20    29.65F
*CALDWELL      NOT AVBL
*CROCKETT      CLOUDY    66  57  72 SE5       29.69R
*BRENHAM       CLOUDY    72  67  84 SE6       29.64F
HUNTSVILLE     CLOUDY    70  63  78 VRB7      29.63F
CONROE         CLOUDY    68  64  87 E5        29.66F
HOUSTON BUSH   CLOUDY    75  68  78 S8        29.65F
HOUSTON HOBBY  CLOUDY    74  70  87 SE7       29.64F
*HOUSTON SW AP CLOUDY    73  69  88 SE6       29.66F
PEARLAND       CLOUDY    77  71  82 SE6       29.67F
HOUSTON HOOKS  CLOUDY    73  68  84 S7        29.65F
ELLINGTON FLD  CLOUDY    75  68  78 SE8       29.66F
SUGAR LAND     CLOUDY    75  70  84 SE9       29.64F
*HOUSTON EXEC  CLOUDY    72  68  88 S9        29.65F
*CLEVELAND MUN CLOUDY    71  67  87 SE3       29.67F
*WHARTON       CLOUDY    74  68  83 SE6       29.65F
*COLUMBUS      CLOUDY    71  67  88 SE5       29.64F
*EAGLE LAKE    CLOUDY    72  70  91 SE7       29.63F
$$

TXZ214>216-236>238-280800-
THE UPPER TEXAS COAST

CITY           SKY/WX    TMP DP  RH WIND       PRES   REMARKS
*ORANGE        CLOUDY    75  73  91 S7        29.70F
PORT ARTHUR    CLOUDY    76  71  85 SE12      29.67F
GALVESTON      CLOUDY    77  74  90 SE10      29.66F
ANGLETON       CLOUDY    77  73  87 SE8       29.65F
*BAY CITY      CLOUDY    76  73  89 SE5       29.64F
PALACIOS       CLOUDY    76  72  87 SE7       29.64S
$$

TXZ229>234-239>247-280800-
TEXAS COASTAL BEND AND RIO GRANDE PLAINS

CITY           SKY/WX    TMP DP  RH WIND       PRES   REMARKS
VICTORIA       CLOUDY    75  70  84 SE10      29.63F
*BEEVILLE      CLOUDY    75  75 100 SE7       29.62F
ROCKPORT       CLOUDY    77  72  84 SE9       29.61F
*PORT ARANSAS  CLOUDY    76  73  90 SE9       29.61S
*PORT LAVACA   CLOUDY    75  72  89 S5        29.64F
*INGLESIDE     CLOUDY    77  73  86 SE5       29.60F
CORPUS CHRISTI CLOUDY    77  73  87 SE16      29.60F
CORPUS NAS     MOCLDY    77  74  90 SE12      29.59F
*ROBSTOWN      CLOUDY    78  72  82 SE9       29.61S
ALICE          MOCLDY    73  71  93 SE7       29.59F
KINGSVILLE NAS CLOUDY    77  74  90 SE7       29.59F
COTULLA        MOCLDY    72  66  81 SE9       29.59F
*FAITH RANCH   PTCLDY    75  70  83 SE12G18   29.56F
LAREDO         PTCLDY    74  70  87 SE13      29.58S
$$

TXZ248>255-280800-
DEEP SOUTH TEXAS

CITY           SKY/WX    TMP DP  RH WIND       PRES   REMARKS
BROWNSVILLE    CLOUDY    77  73  87 SE10      29.62F
PORT ISABEL    CLOUDY    76  73  91 S13       29.60F FOG
*SOUTH PADRE   NOT AVBL
HARLINGEN      MOCLDY    74  73  97 SE9       29.59F
*HEBBRONVILLE  CLOUDY    72  70  93 S13       29.60F FOG
MCALLEN        PTCLDY    76  70  82 SE9       29.59F
*WESLACO       MOCLDY    74  71  88 S9        29.59F
FALFURRIAS     CLEAR     74  72  92 SE6       29.58F
EDINBURG       CLOUDY    74  70  86 SE5       29.59F
*ZAPATA        CLOUDY    75  69  81 SE7       29.58F
$$

TXZ213>215-236>238-242>244-246-247-251-254-255-280800-
CMAN STATIONS

STATION/POSITION TIME  TEMP    WIND        PRES    WAVE
                       AIR SEA DIR/SP/G            HT/PER
                 (UTC) (F)     (DEG/KT/KT) (MB)    (FT/S)
SABINE PASS      0630   75 76  140/ 10/ 14 1006.3
SEA RIM ST PARK  0600   75     140/ 11/ 13 1005.6
NORTH JETTY/GLS  0624      75  120/ 12/ 14 1004.1
EAGLE POINT      0624   74 75  150/  9/ 10 1004.4
MORGANS POINT    0630   74 75  130/  8/ 12 1004.4
MISSION/ARANSAS  0600   77                 1004.0
PORT O`CONNOR    0624   75     150/ 11/ 14 1003.2
PORT ARANSAS     0600   76 77  130/ 13/ 14 1003.0
MALAQUITE BEACH  0624   76 78  120/ 18/ 20 1002.7
BAFFIN BAY       0624   77 78   90/ 12/ 14 1002.6
PORT ISABEL      0624   77 81  150/ 12/ 15 1002.8
$$




USA.gov is the U.S. government's official web portal to all federal, state and local government web resources and services.